• In Hungary
  • List of Countries
  • For 7 days
  • Water Temperature
  • Satellite Maps
  • Weather Map
  • News
  • Weather Widgets
  • user-avatar
    Login

    Hourly Weather London

    Today, 12 December, Tuesday

    Time Temperature Precipitation Wind Pressure Humidity
    00:00 -4°C° 0 mm 4 mps 747 mmHg 88%
    01:00 -4°C° 0 mm 4 mps 748 mmHg 88%
    02:00 -4°C° 0 mm 4 mps 749 mmHg 88%
    03:00 -4°C° 0 mm 4 mps 750 mmHg 89%
    04:00 -4°C° 0 mm 4 mps 751 mmHg 89%
    05:00 -4°C° 0 mm 3 mps 751 mmHg 89%
    06:00 -3°C° 0 mm 2 mps 753 mmHg 90%
    07:00 -3°C° 0 mm 2 mps 753 mmHg 89%
    08:00 -4°C° 0 mm 3 mps 754 mmHg 89%
    09:00 -2°C° 0 mm 3 mps 754 mmHg 89%
    10:00 -1°C° 0 mm 3 mps 755 mmHg 87%
    11:00 0°C° 0 mm 3 mps 755 mmHg 86%
    12:00 +1°C° 0 mm 2 mps 756 mmHg 85%
    13:00 0°C° 0 mm 3 mps 756 mmHg 86%
    14:00 0°C° 0 mm 3 mps 756 mmHg 86%
    15:00 0°C° 0 mm 3 mps 756 mmHg 87%
    16:00 +1°C° 0 mm 3 mps 756 mmHg 87%
    17:00 +1°C° 0 mm 3 mps 756 mmHg 87%
    18:00 +1°C° 0 mm 3 mps 756 mmHg 87%
    19:00 +1°C° 0 mm 4 mps 755 mmHg 87%
    20:00 +1°C° 0 mm 4 mps 755 mmHg 87%
    21:00 +2°C° 0 mm 5 mps 755 mmHg 87%
    22:00 +3°C° 0.2 mm 5 mps 754 mmHg 88%
    23:00 +3°C° 0.2 mm 6 mps 753 mmHg 88%

    Tomorrow, 13 December, Wednesday

    Time Temperature Precipitation Wind Pressure Humidity
    00:00 +4°C° 0.2 mm 7 mps 752 mmHg 89%
    01:00 +4°C° 0.5 mm 7 mps 752 mmHg 90%
    02:00 +5°C° 0.5 mm 7 mps 751 mmHg 92%
    03:00 +5°C° 0.5 mm 8 mps 750 mmHg 93%
    04:00 +5°C° 0.1 mm 7 mps 750 mmHg 93%
    05:00 +4°C° 0.1 mm 6 mps 750 mmHg 93%
    06:00 +5°C° 0.1 mm 5 mps 750 mmHg 93%
    07:00 +3°C° 0.2 mm 5 mps 750 mmHg 92%
    08:00 +3°C° 0.2 mm 5 mps 750 mmHg 91%
    09:00 +3°C° 0.2 mm 5 mps 750 mmHg 90%
    10:00 +5°C° 0.3 mm 5 mps 749 mmHg 90%
    11:00 +5°C° 0.3 mm 6 mps 748 mmHg 89%
    12:00 +5°C° 0.3 mm 6 mps 747 mmHg 88%
    13:00 +6°C° 0.8 mm 7 mps 746 mmHg 89%
    14:00 +6°C° 0.8 mm 8 mps 744 mmHg 89%
    15:00 +6°C° 0.8 mm 8 mps 743 mmHg 89%
    16:00 +5°C° 0.7 mm 8 mps 743 mmHg 83%
    17:00 +4°C° 0.7 mm 8 mps 743 mmHg 78%
    18:00 +3°C° 0.7 mm 7 mps 743 mmHg 72%
    19:00 +2°C° 0.6 mm 8 mps 743 mmHg 73%
    20:00 +2°C° 0.6 mm 9 mps 743 mmHg 74%
    21:00 +2°C° 0.6 mm 9 mps 743 mmHg 74%
    22:00 +1°C° 0.1 mm 9 mps 744 mmHg 72%
    23:00 0°C° 0.1 mm 9 mps 745 mmHg 69%

    Day after tomorrow, 14 December, Thursday

    Time Temperature Precipitation Wind Pressure Humidity
    00:00 0°C° 0.1 mm 9 mps 746 mmHg 67%
    01:00 0°C° 0 mm 9 mps 746 mmHg 67%
    02:00 0°C° 0 mm 8 mps 746 mmHg 68%
    03:00 0°C° 0 mm 8 mps 747 mmHg 69%
    04:00 0°C° 0 mm 8 mps 747 mmHg 70%
    05:00 0°C° 0 mm 7 mps 747 mmHg 71%
    06:00 0°C° 0 mm 7 mps 746 mmHg 73%
    07:00 0°C° 0 mm 7 mps 746 mmHg 73%
    08:00 +2°C° 0 mm 6 mps 746 mmHg 74%
    09:00 +2°C° 0 mm 6 mps 745 mmHg 75%
    10:00 +2°C° 0.2 mm 5 mps 744 mmHg 76%
    11:00 +3°C° 0.2 mm 5 mps 744 mmHg 78%
    12:00 +4°C° 0.2 mm 4 mps 743 mmHg 80%
    13:00 +4°C° 0.8 mm 4 mps 742 mmHg 81%
    14:00 +3°C° 0.8 mm 4 mps 742 mmHg 82%
    15:00 +3°C° 0.8 mm 4 mps 741 mmHg 83%
    16:00 +2°C° 0 mm 5 mps 741 mmHg 81%
    17:00 +1°C° 0 mm 5 mps 741 mmHg 79%
    18:00 0°C° 0 mm 5 mps 742 mmHg 77%
    19:00 0°C° 0 mm 4 mps 742 mmHg 78%
    20:00 0°C° 0 mm 4 mps 742 mmHg 80%
    21:00 +1°C° 0 mm 3 mps 742 mmHg 81%
    22:00 +1°C° 0 mm 3 mps 742 mmHg 83%
    23:00 +1°C° 0 mm 3 mps 742 mmHg 85%

    15 December, Friday

    Time Temperature Precipitation Wind Pressure Humidity
    00:00 +2°C° 0 mm 2 mps 742 mmHg 87%
    01:00 +2°C° 0 mm 2 mps 742 mmHg 88%
    02:00 +2°C° 0 mm 2 mps 742 mmHg 89%
    03:00 +3°C° 0 mm 1 mps 742 mmHg 90%
    04:00 +1°C° 0 mm 2 mps 743 mmHg 91%
    05:00 +1°C° 0 mm 2 mps 744 mmHg 91%
    06:00 0°C° 0 mm 3 mps 744 mmHg 92%
    07:00 +1°C° 0 mm 2 mps 745 mmHg 91%
    08:00 +1°C° 0 mm 2 mps 745 mmHg 90%
    09:00 +1°C° 0 mm 2 mps 746 mmHg 88%
    10:00 +2°C° 0.1 mm 2 mps 747 mmHg 86%
    11:00 +4°C° 0.1 mm 1 mps 747 mmHg 83%
    12:00 +4°C° 0.1 mm 1 mps 748 mmHg 81%
    13:00 +3°C° 0 mm 2 mps 749 mmHg 81%
    14:00 +2°C° 0 mm 3 mps 749 mmHg 80%
    15:00 +2°C° 0 mm 3 mps 750 mmHg 80%
    16:00 0°C° 0 mm 4 mps 751 mmHg 83%
    17:00 0°C° 0 mm 4 mps 752 mmHg 86%
    18:00 -1°C° 0 mm 4 mps 753 mmHg 89%
    19:00 -1°C° 0 mm 4 mps 754 mmHg 89%
    20:00 -1°C° 0 mm 4 mps 755 mmHg 90%
    21:00 -1°C° 0 mm 4 mps 755 mmHg 91%
    22:00 -1°C° 0 mm 4 mps 756 mmHg 91%
    23:00 0°C° 0 mm 3 mps 756 mmHg 91%

    16 December, Saturday

    Time Temperature Precipitation Wind Pressure Humidity
    00:00 0°C° 0 mm 3 mps 756 mmHg 91%
    01:00 0°C° 0 mm 3 mps 757 mmHg 89%
    02:00 -1°C° 0 mm 4 mps 757 mmHg 88%
    03:00 -1°C° 0 mm 4 mps 757 mmHg 87%
    04:00 -2°C° 0 mm 4 mps 758 mmHg 86%
    05:00 -2°C° 0 mm 4 mps 758 mmHg 85%
    06:00 -2°C° 0 mm 4 mps 758 mmHg 84%
    07:00 -2°C° 0 mm 4 mps 759 mmHg 84%
    08:00 -2°C° 0 mm 4 mps 759 mmHg 84%
    09:00 -1°C° 0 mm 4 mps 760 mmHg 83%
    10:00 -1°C° 0 mm 4 mps 760 mmHg 79%
    11:00 0°C° 0 mm 4 mps 761 mmHg 74%
    12:00 +1°C° 0 mm 5 mps 761 mmHg 70%
    13:00 +1°C° 0 mm 4 mps 762 mmHg 71%
    14:00 0°C° 0 mm 4 mps 762 mmHg 73%
    15:00 0°C° 0 mm 4 mps 762 mmHg 75%
    16:00 +1°C° 0 mm 3 mps 763 mmHg 77%
    17:00 0°C° 0 mm 3 mps 763 mmHg 80%
    18:00 -1°C° 0 mm 3 mps 764 mmHg 83%
    19:00 -1°C° 0 mm 3 mps 765 mmHg 83%
    20:00 -1°C° 0 mm 3 mps 765 mmHg 83%
    21:00 -1°C° 0 mm 3 mps 766 mmHg 83%
    22:00 -1°C° 0 mm 3 mps 766 mmHg 82%
    23:00 -1°C° 0 mm 2 mps 766 mmHg 81%

    17 December, Sunday

    Time Temperature Precipitation Wind Pressure Humidity
    00:00 -1°C° 0 mm 2 mps 767 mmHg 80%
    01:00 -1°C° 0 mm 2 mps 767 mmHg 79%
    02:00 -1°C° 0 mm 2 mps 767 mmHg 78%
    03:00 -1°C° 0 mm 2 mps 767 mmHg 77%
    04:00 -1°C° 0 mm 2 mps 767 mmHg 77%
    05:00 -1°C° 0 mm 2 mps 767 mmHg 77%
    06:00 -1°C° 0 mm 3 mps 767 mmHg 77%
    07:00 -1°C° 0 mm 3 mps 768 mmHg 76%
    08:00 0°C° 0 mm 3 mps 768 mmHg 76%
    09:00 0°C° 0 mm 3 mps 768 mmHg 75%
    10:00 +1°C° 0 mm 3 mps 768 mmHg 74%
    11:00 +3°C° 0 mm 4 mps 768 mmHg 74%
    12:00 +4°C° 0 mm 4 mps 768 mmHg 73%
    13:00 +4°C° 0 mm 4 mps 768 mmHg 76%
    14:00 +3°C° 0 mm 3 mps 768 mmHg 80%
    15:00 +3°C° 0 mm 3 mps 768 mmHg 83%
    16:00 +3°C° 0 mm 3 mps 768 mmHg 86%
    17:00 +3°C° 0 mm 3 mps 767 mmHg 88%
    18:00 +2°C° 0 mm 3 mps 767 mmHg 91%
    19:00 +3°C° 0 mm 4 mps 767 mmHg 91%
    20:00 +3°C° 0 mm 4 mps 767 mmHg 92%
    21:00 +3°C° 0 mm 4 mps 767 mmHg 92%
    22:00 +4°C° 0 mm 4 mps 767 mmHg 92%
    23:00 +3°C° 0 mm 5 mps 766 mmHg 92%
    Show more